Flag for Switzerland Weather past 2 weeks in Basel, Basel-Stadt, Switzerland

Now
51 °F

Passing clouds.


Feels Like: 49 °F
Forecast: 40 / 64 °F
Wind: 5 mph from East

Location: Bale-Mulhouse

Current Time: Sep 23, 2014 at 11:35:08 AM

Latest Report: Sep 23, 2014 at 10:00 AM


Visibility: 9 mi

Pressure: 30.20 "Hg

Humidity: 79%

Dew point: 44 °F

Location of BaselLocation

Historic Weather in Basel — Graph

°F

Basel temperature yesterday

Maximum temperature yesterday: 63 °F (at 2:00 PM)
Minimum temperature yesterday: 47 °F (at 11:00 PM)
Average temperature yesterday: 56 °F

Past Weeks' High & Low Weather Summary

 TemperatureHumidityPressure
High81 °F (Sep 8, 4:00 PM)99% (Sep 15, 4:00 AM)30.22 "Hg (Sep 15, 4:00 AM)
Low44 °F (Sep 23, 2:00 AM)48% (Sep 16, 4:00 PM)29.80 "Hg (Sep 17, 4:00 PM)
Average62 °F84%30.01 "Hg
* Reported Sep 8 10:00 AM — Sep 23 10:00 AM, Basel, Weather by CustomWeather, © 2014

Note: Actual official high and low records may vary slightly from our data, if they occured in-between our weather recording intervals... More about our weather records

Advertising

Basel weather history for previous 24 hours

 ConditionsComfort  
Time TempWeatherWind HumidityBarometerVisibility
10:00 AM
Sep 23
51 °FPassing clouds.5 mph79%30.20 "Hg9 mi
9:00 AM47 °FPassing clouds.2 mph89%30.22 "Hg5 mi
8:00 AM45 °FFog.No wind96%30.21 "Hg2 mi
7:00 AM45 °FFog.2 mph95%30.21 "Hg2 mi
6:00 AM46 °FFog.2 mph97%30.20 "Hg2 mi
5:00 AM46 °FFog.2 mph97%30.20 "Hg3 mi
4:00 AM45 °FLow clouds.1 mph98%30.21 "Hg1 mi
3:00 AM47 °FLow clouds.5 mph98%30.20 "Hg2 mi
2:00 AM44 °FQuite cool.3 mph97%30.20 "Hg1 mi
1:00 AM46 °FCool.2 mph96%30.19 "Hg4 mi
12:00 AM47 °FPassing clouds.7 mph96%30.19 "Hg6 mi
11:00 PM
Sep 22
47 °FPassing clouds.7 mph95%30.20 "Hg9 mi
10:00 PM51 °FOvercast.3 mph89%30.19 "Hg12 mi
9:00 PM53 °FLight rain. Overcast.10 mph83%30.20 "Hg6 mi
8:00 PM51 °FPassing clouds.3 mph85%30.16 "Hg7 mi
7:00 PM57 °FScattered clouds.2 mph72%30.14 "Hg11 mi
6:00 PM59 °FPartly sunny.5 mph59%30.13 "Hg16 mi
5:00 PM60 °FOvercast.10 mph55%30.11 "Hg11 mi
4:00 PM62 °FOvercast.9 mph60%30.10 "Hg11 mi
3:00 PM61 °FPartly sunny.7 mph58%30.11 "Hg11 mi
2:00 PM63 °FPartly sunny.3 mph55%30.13 "Hg11 mi
1:00 PM61 °FPartly sunny.5 mph58%30.14 "Hg11 mi
12:00 PM60 °FScattered clouds.8 mph66%30.16 "Hg7 mi
11:00 AM58 °FPassing clouds.8 mph73%30.17 "Hg7 mi
Weather by CustomWeather, © 2014

See weather overviewHow to use our weather pages